Theta_e
316 315 316 316 316 315 315 315 315 315 315 316 317 318 318 319 321 322 322 321 321 320 319 319 320 320 320 321 321 321 322 322 323 323 324 324 325 326 326 326 326 326 326 326 326 326 326 327 326 326 326 325 325 325 325 324 324 323 323 323 323 321 321 321 321 321 321 322 322 323 323 322 323 322 321 321 322 322 321 322 321 321 321 321 320
317 317 316 316 316 316 315 315 315 315 315 315 316 317 317 317 318 319 321 322 322 321 320 320 320 321 320 320 321 321 321 322 323 323 324 324 325 325 326 326 326 326 326 326 326 326 326 326 326 326 326 326 326 325 325 325 324 323 323 324 323 321 321 321 321 321 321 321 321 321 322 322 322 322 321 321 322 322 322 322 322 322 321 321 320
316 316 315 315 315 315 314 315 315 315 315 315 316 316 317 317 316 316 318 320 322 322 321 321 321 321 320 320 321 321 322 322 323 323 323 324 325 325 325 326 326 326 326 326 326 326 326 326 326 326 326 326 326 326 325 325 324 323 323 324 323 322 322 322 321 321 321 321 321 321 321 321 321 322 321 321 322 322 322 322 322 322 322 320 320
315 314 313 313 313 313 313 313 314 315 315 315 315 316 316 316 316 315 316 317 320 322 322 322 322 322 321 321 321 321 321 322 322 323 323 323 324 324 324 325 325 325 325 325 326 326 326 326 326 326 326 326 326 326 325 325 324 323 323 324 323 323 323 323 322 322 322 322 322 321 321 321 321 322 321 321 322 322 322 322 322 322 321 320 320
313 311 310 310 310 310 311 311 311 313 314 314 314 315 316 315 315 315 315 315 317 320 322 323 322 322 322 321 321 321 322 322 322 322 323 323 323 324 324 325 325 325 325 325 325 326 326 326 326 326 326 326 326 326 325 325 325 324 324 324 324 324 324 323 323 323 322 322 322 322 322 321 322 322 322 322 322 323 323 322 322 321 321 321 320
309 308 308 308 309 309 309 309 309 310 313 314 314 314 315 315 315 314 314 314 314 316 319 323 323 323 323 322 322 322 322 322 323 323 323 323 323 323 324 324 324 324 325 325 325 325 325 326 326 326 326 326 326 325 325 325 325 325 325 325 325 325 324 324 324 323 323 323 322 322 322 321 321 322 322 322 323 323 323 322 322 322 322 321 321
307 307 307 307 308 308 308 308 309 309 311 313 314 314 315 316 315 314 314 314 314 314 315 318 321 322 323 324 323 324 323 323 323 323 323 323 323 323 323 324 324 324 324 324 325 325 325 325 325 325 325 325 325 326 325 325 325 325 325 325 325 325 324 324 324 323 323 323 323 322 322 321 321 321 322 322 322 322 322 322 322 322 322 321 321
307 307 307 307 307 308 308 308 308 308 309 311 313 313 314 316 316 315 315 314 314 314 314 314 315 317 319 321 322 322 323 323 322 322 322 322 322 322 322 322 323 323 323 324 324 324 324 324 325 325 325 325 325 326 325 325 325 325 325 325 325 325 324 324 324 323 323 323 322 322 322 322 321 321 320 320 320 321 322 322 322 322 321 320 320
307 307 308 308 308 308 308 308 308 308 308 309 312 313 313 314 316 316 316 315 315 314 314 314 314 314 314 315 316 317 318 318 318 318 319 320 320 321 321 321 322 322 323 323 324 324 323 323 324 324 324 325 325 325 325 325 325 325 325 324 325 324 324 324 324 323 322 322 322 322 321 321 321 320 320 320 320 321 322 321 321 321 321 320 320
308 308 308 308 308 308 308 308 308 308 308 308 310 312 312 313 315 316 316 316 316 315 315 315 315 315 315 314 314 314 315 315 315 315 315 317 318 319 319 320 321 321 321 322 322 322 322 322 323 323 323 323 324 324 324 324 323 324 324 324 324 324 324 324 323 323 322 322 322 321 321 321 321 321 320 321 321 321 321 321 321 321 320 320 320
309 309 309 309 309 309 309 309 308 308 308 308 309 311 311 311 314 315 316 316 317 316 316 316 315 315 315 315 315 315 315 315 314 314 314 315 316 317 318 319 319 319 319 319 320 321 321 322 322 322 322 322 323 323 324 323 323 323 323 324 324 323 323 323 322 322 322 322 322 321 321 321 321 321 321 321 321 320 320 320 320 320 320 320 319
309 309 309 309 309 309 309 309 309 309 309 309 309 310 311 311 313 315 315 315 316 317 316 316 315 315 315 315 315 315 315 315 314 314 314 314 314 315 316 317 318 318 318 318 319 320 320 321 321 321 321 322 322 322 322 323 323 322 323 324 324 323 323 323 322 322 322 322 322 321 321 321 321 321 320 320 320 320 320 320 319 319 319 319 319
310 310 310 310 310 310 309 309 309 309 309 309 309 309 310 311 312 314 314 314 315 316 316 316 315 315 315 315 315 314 314 314 314 314 314 313 313 313 314 315 316 317 317 318 319 319 320 320 320 321 322 322 322 323 323 323 323 322 323 323 323 323 322 322 322 322 321 321 320 320 320 320 320 320 320 320 320 319 319 319 319 318 318 318 318
310 310 310 310 310 310 310 309 309 309 309 310 310 310 311 312 313 313 313 314 314 315 316 316 316 315 314 314 314 313 313 313 313 313 313 313 313 313 313 314 315 316 316 317 318 318 319 320 320 320 321 322 322 322 322 322 323 323 322 321 322 322 321 321 322 322 321 320 320 320 319 319 319 319 319 318 318 318 318 318 318 317 317 317 317
310 310 311 311 310 310 310 310 310 311 311 311 311 312 312 313 313 314 314 314 314 314 315 315 315 314 314 313 313 312 312 312 312 312 312 313 313 313 314 314 315 316 316 316 317 318 319 320 320 321 321 321 321 321 321 322 322 321 321 320 321 321 321 321 321 321 321 320 320 319 319 318 318 318 317 317 316 316 316 316 316 316 316 316 316
311 311 311 311 311 311 311 311 312 312 312 312 312 312 312 313 313 314 314 314 314 314 314 314 313 313 312 312 311 311 311 312 312 312 312 312 312 313 314 315 315 316 316 316 317 318 319 320 320 321 321 321 321 321 321 320 320 320 320 320 320 320 320 320 320 319 319 319 319 319 318 318 317 317 317 317 317 316 316 316 316 314 314 315 315
311 311 311 311 311 312 312 312 312 312 312 312 312 312 312 312 312 312 312 312 312 312 312 312 312 311 311 311 311 311 311 312 312 312 312 311 311 312 312 313 314 314 315 316 317 318 319 319 320 320 320 319 319 319 319 319 319 319 320 320 319 319 319 318 318 318 318 318 318 318 317 316 315 315 315 315 315 315 315 314 314 313 313 314 314
311 311 311 311 311 312 311 311 311 311 311 311 311 311 311 311 311 311 311 311 311 311 311 311 311 311 311 310 311 311 311 311 311 311 311 310 310 310 311 311 312 312 313 314 315 316 317 317 317 317 317 318 317 317 318 318 319 319 319 319 318 318 318 317 317 317 317 317 316 316 315 314 313 314 315 315 315 314 314 314 314 314 314 314 313
311 311 311 311 311 310 310 310 310 310 310 310 310 310 310 310 310 310 310 310 310 310 310 310 310 310 310 310 310 310 310 310 310 310 310 310 309 310 309 310 310 310 311 313 314 315 316 316 316 316 316 316 316 316 316 316 316 316 317 317 316 316 316 316 316 316 316 315 313 312 313 313 314 314 315 314 314 314 313 313 313 312 312 312 312
310 310 310 309 309 309 309 310 310 310 310 309 309 309 310 310 310 310 310 309 309 308 308 308 308 309 309 309 309 309 309 309 309 309 308 308 308 308 308 308 308 308 309 310 311 312 313 314 314 314 314 314 313 313 313 313 314 314 314 314 314 314 314 314 314 313 312 311 309 309 309 310 310 310 310 310 310 310 310 309 309 308 308 309 309
309 309 309 309 309 309 309 309 310 310 310 309 309 308 308 309 309 309 308 308 307 307 306 306 306 307 307 307 307 307 307 307 307 307 307 306 306 306 306 306 306 306 306 307 307 308 309 310 311 311 311 312 312 312 311 311 311 311 311 310 310 310 309 309 308 307 307 307 306 306 306 306 306 306 306 306 306 306 306 306 305 305 306 306 306
308 308 308 308 308 308 308 308 308 308 308 308 307 307 307 307 306 306 306 306 306 305 305 304 304 304 304 305 305 305 305 305 305 304 304 304 304 304 304 305 305 305 305 305 305 305 305 306 306 307 307 307 307 307 307 307 307 306 306 306 306 305 305 305 304 304 304 305 305 305 305 305 305 305 305 305 305 305 304 304 304 304 304 304 303
307 307 307 306 306 306 306 306 305 305 305 305 305 305 304 304 304 304 304 304 304 303 303 303 302 302 302 302 302 302 302 302 302 302 302 302 302 302 302 302 302 302 303 303 303 303 303 303 303 303 303 303 303 303 303 303 303 303 303 303 303 303 303 303 303 303 303 303 303 303 304 304 304 304 304 304 304 304 304 304 303 303 303 303 303
306 305 305 304 304 303 303 303 303 302 302 302 302 302 302 302 302 302 302 302 302 302 301 301 301 301 300 300 300 300 300 300 300 300 300 300 300 300 300 300 300 300 300 300 301 301 301 301 301 301 301 301 301 301 301 301 301 301 301 301 301 301 301 301 302 302 302 302 303 303 303 303 303 303 303 304 304 304 304 304 304 304 304 304 303
304 303 302 302 302 301 301 301 301 301 301 300 300 300 300 300 300 300 300 300 299 299 300 300 299 299 299 299 299 299 299 299 299 300 300 300 300 300 300 300 300 300 300 301 301 301 301 301 301 301 301 301 301 301 300 300 300 300 300 300 300 301 301 301 302 302 302 302 303 303 303 303 302 302 302 302 302 303 303 303 304 304 304 304 304
302 301 300 300 300 299 299 299 299 299 299 299 299 299 299 299 299 299 299 299 299 298 298 298 298 298 298 299 299 299 299 300 300 301 301 302 302 302 302 302 302 302 302 302 302 302 302 302 302 303 303 303 302 302 302 302 302 301 301 301 302 302 302 302 302 302 302 302 302 302 302 302 302 302 302 302 302 302 302 303 303 303 303 304 304
300 299 299 299 299 299 299 299 299 299 298 298 298 298 298 299 299 299 299 299 299 299 299 299 299 299 300 300 301 301 301 301 301 301 301 301 301 302 302 302 301 301 301 301 301 301 301 302 302 302 303 303 303 302 302 302 302 302 302 302 302 302 302 302 301 301 301 301 300 300 300 300 300 300 301 301 301 301 301 302 302 302 302 303 303
299 298 298 298 298 298 297 297 297 297 297 297 298 298 298 299 299 299 299 299 299 299 299 299 299 299 299 300 300 300 300 300 300 299 299 300 300 299 299 299 299 298 297 297 297 298 299 300 300 301 301 302 302 302 302 302 302 302 302 302 302 301 301 301 300 300 300 300 299 299 299 299 299 299 300 300 300 300 300 301 301 301 301 301 302
298 297 297 297 297 296 296 296 297 297 298 299 300 300 300 300 300 300 300 300 300 300 300 299 299 299 298 299 299 299 299 298 298 297 298 298 298 298 297 297 297 296 295 294 294 294 295 296 297 299 300 301 302 302 302 302 302 301 301 301 301 301 300 299 298 298 298 298 298 298 298 298 298 298 298 298 298 298 298 298 298 299 299 300 300
297 297 296 296 296 296 297 298 298 299 300 300 301 301 301 300 300 300 300 300 300 300 300 300 299 299 299 298 298 298 298 298 297 297 296 296 296 296 296 296 296 295 295 294 294 293 292 293 294 295 296 298 299 299 300 300 300 299 299 299 299 299 298 297 295 294 294 293 293 293 294 294 294 294 294 294 294 294 294 294 294 294 295 295 296
296 296 296 295 296 297 298 299 300 300 300 300 300 300 300 300 300 299 299 299 299 298 298 298 298 298 299 299 298 298 298 297 297 296 296 295 294 295 294 294 294 293 293 293 293 292 292 292 292 292 292 293 293 294 294 294 294 295 295 295 294 294 294 293 292 291 291 290 290 290 290 290 290 290 290 291 291 291 291 291 291 291 291 291 292
296 295 296 296 297 298 299 300 300 300 300 300 300 299 299 299 299 298 298 298 297 296 296 296 296 297 297 297 297 297 297 297 297 297 295 294 293 293 292 292 291 291 290 290 290 290 290 291 291 290 291 291 291 291 291 291 291 291 291 291 290 290 290 290 290 289 289 289 289 289 288 288 288 288 288 289 289 289 289 289 289 289 289 290 290
296 296 297 298 299 299 299 299 299 299 298 298 298 297 297 297 296 296 295 295 295 294 294 294 294 295 295 295 295 295 295 295 295 295 295 293 291 290 290 290 289 289 289 289 289 289 289 289 289 289 289 289 289 289 289 289 289 289 289 289 288 288 288 288 288 288 288 288 288 288 287 287 287 287 287 287 287 287 288 288 288 288 288 288 288
298 298 299 299 299 298 298 298 297 297 296 296 295 295 295 294 294 294 294 294 294 293 293 293 293 293 292 292 292 292 292 292 292 292 292 291 290 289 289 289 289 289 289 289 289 289 289 289 288 288 288 288 288 288 288 288 288 288 288 288 288 287 287 287 287 287 287 287 286 286 286 286 286 286 286 286 286 286 287 287 287 288 288 288 288
299 299 298 298 298 297 297 296 296 296 295 294 294 294 294 293 293 293 293 293 293 292 292 291 291 291 290 290 289 289 289 290 290 290 290 290 289 289 288 288 288 288 288 288 288 288 288 288 288 288 287 287 287 287 287 287 287 287 287 286 286 286 286 285 285 285 285 285 284 284 284 285 285 285 285 286 286 286 286 287 287 288 288 288 288
298 298 298 297 296 295 294 294 294 294 294 293 293 292 292 292 292 292 292 291 290 290 289 289 288 288 288 288 288 288 288 288 288 289 289 289 289 288 288 288 288 288 288 288 287 287 287 287 287 287 287 287 286 286 285 285 285 285 285 285 285 285 284 284 284 284 284 284 283 283 283 283 284 284 285 285 285 286 286 286 286 286 286 286 286
297 297 296 296 295 293 292 291 291 291 291 290 290 289 289 289 289 290 289 289 288 288 287 287 287 287 286 286 286 287 287 287 287 287 288 288 288 288 288 287 287 287 287 287 287 287 286 286 286 286 285 285 285 284 284 284 284 284 284 284 284 284 284 283 283 283 283 283 283 283 283 282 283 283 283 283 284 284 284 284 284 284 284 283 284
296 295 295 294 294 292 291 290 289 289 289 288 288 288 288 288 288 287 287 287 287 287 287 287 286 286 286 286 286 286 286 286 286 287 287 287 287 287 287 286 286 286 286 286 286 286 285 285 285 284 284 284 284 283 283 283 283 283 283 283 283 282 282 282 282 282 282 282 282 282 281 281 281 281 281 281 282 282 281 281 281 282 282 282 283
294 294 293 292 291 290 290 289 288 288 287 287 287 287 287 287 287 286 286 286 286 286 286 286 286 286 286 286 285 285 285 285 285 286 286 286 286 286 286 285 285 285 285 285 285 284 284 284 284 284 283 283 283 283 283 283 283 282 282 282 282 282 282 282 282 282 282 282 282 281 281 281 281 281 281 281 281 281 281 280 280 281 281 281 281
292 292 291 290 290 289 289 288 288 287 287 286 286 286 286 286 286 286 285 285 285 285 285 286 286 286 285 285 285 285 284 284 284 284 284 285 285 285 284 284 284 284 284 284 284 284 284 284 284 283 283 283 283 283 283 283 282 282 282 282 282 282 282 282 282 282 282 282 282 282 282 282 282 282 282 281 281 281 281 281 281 281 281 281 280
291 291 290 290 289 289 288 288 287 286 286 286 286 286 286 286 285 285 284 284 284 284 285 285 285 285 285 285 285 285 284 283 283 283 284 284 284 284 284 284 284 283 283 283 283 283 283 283 283 283 283 283 283 283 283 283 283 282 282 282 282 282 282 282 282 282 282 282 282 282 282 282 282 282 282 282 282 282 282 281 281 281 281 281 280
290 289 289 288 288 287 287 286 286 286 285 285 285 286 285 285 285 284 284 284 284 284 284 284 284 284 284 284 284 284 283 283 283 283 283 283 283 283 283 283 283 283 283 283 283 283 283 283 283 283 283 283 283 283 282 282 282 282 282 282 282 282 282 282 282 282 282 282 282 282 282 282 282 282 282 282 282 282 282 282 281 281 281 281 280
288 288 287 287 287 286 286 286 285 285 285 285 285 285 285 285 284 284 284 284 284 284 284 284 283 283 283 283 283 283 283 282 282 282 282 282 283 283 283 283 283 282 282 282 282 282 282 282 282 282 282 282 282 282 282 282 282 282 282 282 282 282 282 282 282 282 282 282 282 282 282 282 282 282 282 282 282 282 282 282 281 281 281 281 280
287 287 287 286 286 286 285 285 285 285 285 285 285 285 284 284 284 284 284 284 283 283 283 283 282 282 282 283 282 282 282 282 282 282 282 282 282 282 282 282 282 282 282 282 282 281 281 281 281 281 281 281 281 281 281 282 282 282 282 282 281 282 282 282 282 282 281 281 281 281 281 281 281 281 281 281 281 281 281 281 280 280 280 280 279
286 286 286 286 285 285 285 284 284 284 284 284 284 284 284 284 284 284 283 283 283 283 282 282 281 281 281 282 282 281 281 282 282 282 282 282 282 282 282 282 282 282 282 281 281 281 281 280 280 281 281 280 281 281 281 281 281 281 281 281 281 281 281 281 281 280 280 280 280 280 280 280 280 280 280 280 280 280 280 280 280 280 280 279 279
285 285 285 285 284 284 284 284 283 283 283 283 283 284 284 284 283 283 283 283 282 282 281 281 281 281 281 281 281 281 281 281 281 281 282 282 282 282 282 281 281 281 281 281 281 280 280 280 280 280 280 280 280 280 280 280 280 280 280 280 280 281 281 280 280 279 279 280 280 280 280 280 280 280 280 280 280 280 280 281 280 280 280 280 280
284 284 284 283 283 283 283 283 283 282 282 282 283 283 283 283 283 282 282 282 281 281 281 281 280 280 280 280 280 280 281 281 281 281 281 281 281 281 281 281 280 280 280 280 280 280 280 280 280 280 280 280 280 280 280 280 280 280 280 280 280 280 281 280 280 280 280 280 280 280 280 280 280 281 281 280 280 280 281 281 281 281 281 281 281
283 283 283 282 282 282 282 282 282 282 282 282 282 282 281 281 281 281 281 281 281 281 281 280 280 280 280 280 280 280 280 280 280 280 280 280 280 280 280 280 280 280 280 280 280 280 280 280 280 280 280 280 280 279 279 279 279 279 279 279 280 280 280 280 280 280 280 280 280 280 280 280 280 280 280 280 280 281 281 281 281 281 281 281 280
282 282 281 281 281 281 281 281 281 281 281 281 281 280 280 280 280 280 280 280 280 280 280 280 280 280 280 279 279 279 279 279 280 279 279 279 279 279 279 279 279 279 279 280 280 280 280 280 280 280 280 280 280 279 279 279 279 279 279 279 280 280 279 279 279 279 279 279 279 279 279 279 280 280 280 280 280 280 280 280 280 280 280 280 280
281 280 280 280 280 280 280 280 280 280 280 280 280 280 280 280 280 280 280 280 280 279 279 279 279 279 279 279 279 279 279 279 279 279 279 279 279 279 279 279 279 279 279 279 279 279 279 279 279 279 279 280 280 279 279 279 279 279 279 279 279 279 279 279 279 279 279 279 279 279 279 279 279 279 280 280 280 280 280 280 280 280 280 280 280
280 280 280 280 279 279 279 279 279 279 279 279 279 279 279 279 279 279 279 279 279 278 278 278 278 278 278 278 278 278 278 278 278 278 278 279 279 279 279 278 278 278 278 278 278 278 278 278 279 279 279 279 279 279 279 279 279 279 279 279 279 278 278 278 278 278 278 278 278 279 279 279 279 279 279 279 279 280 280 280 280 280 279 279 279
Wind_Speed
16 17 17 18 19 19 19 20 20 21 23 24 26 27 27 27 29 32 34 36 38 41 42 41 38 37 37 37 36 37 37 37 37 37 37 38 38 37 38 39 41 41 41 41 41 41 42 43 42 41 40 41 42 41 41 41 40 40 41 41 42 42 42 43 46 50 50 47 45 45 42 40 41 40 39 40 36 31 32 34 33 33 36 37 37
16 18 19 20 21 22 22 22 22 23 24 24 26 27 27 27 27 29 32 34 35 38 40 41 41 39 38 38 37 37 37 37 37 37 37 37 37 37 37 38 41 41 41 41 42 41 41 42 42 41 40 41 42 41 41 42 41 42 43 42 41 41 42 42 45 48 50 47 45 46 44 41 42 40 39 40 35 29 29 32 32 34 36 36 35
16 18 21 22 23 24 24 24 24 24 25 26 26 27 28 28 27 28 30 32 33 36 38 39 40 40 40 39 38 37 37 37 36 36 36 36 36 37 36 37 40 41 41 42 42 41 41 41 42 41 40 41 41 41 41 42 41 42 42 40 39 40 40 40 43 45 48 48 45 45 44 42 40 39 38 38 33 28 29 31 31 33 34 32 31
19 22 24 25 25 26 26 26 26 26 26 27 27 28 28 29 28 28 29 31 33 35 36 37 38 38 39 39 39 38 37 36 35 35 36 35 35 36 35 36 39 40 40 41 41 40 40 40 40 40 40 40 40 40 41 41 40 40 40 39 39 39 38 39 41 42 45 47 46 44 44 42 40 38 36 36 33 30 30 31 31 33 33 31 30
24 25 26 27 27 27 26 25 26 26 26 26 27 28 28 28 29 28 29 30 32 33 34 36 36 36 37 37 37 37 36 35 34 34 35 34 34 35 35 35 38 38 38 38 38 38 39 39 39 39 39 40 39 39 39 39 38 38 39 38 38 38 39 39 40 41 44 47 47 45 44 43 42 39 36 35 35 33 32 32 32 33 34 33 32
26 27 27 28 28 27 25 25 25 26 26 26 26 27 27 27 27 27 27 28 30 31 32 34 35 36 35 35 35 35 35 34 34 34 34 34 34 35 34 35 37 37 36 37 36 36 37 37 37 36 37 38 38 38 37 37 37 38 38 38 38 38 39 40 40 41 43 46 47 46 45 45 44 42 39 37 36 36 35 35 35 35 35 36 36
27 28 28 29 29 28 27 26 27 27 26 26 26 26 26 25 24 24 25 25 27 28 29 30 33 34 34 33 33 33 33 33 33 33 34 34 34 35 35 35 36 36 36 36 35 35 35 36 35 34 35 36 36 37 36 36 36 37 38 37 37 37 39 40 40 41 43 45 46 46 46 45 45 44 42 39 37 38 38 38 38 37 37 38 39
28 29 29 30 30 29 29 28 29 28 28 27 27 27 26 24 23 23 23 23 23 24 25 26 28 30 31 31 31 31 32 33 33 33 34 34 34 35 35 35 36 36 35 35 34 34 34 34 34 33 33 34 34 35 35 35 36 37 37 37 37 37 39 40 41 42 44 45 45 45 45 45 45 44 42 40 40 39 37 37 38 37 37 39 39
28 29 30 30 30 30 30 30 30 30 29 28 27 27 27 25 23 23 24 23 21 21 21 22 24 25 26 27 28 29 30 31 32 32 33 33 33 34 35 35 36 36 35 35 34 34 33 33 33 32 32 32 32 32 33 34 34 36 36 36 37 38 39 40 41 43 43 44 45 45 44 45 44 42 41 41 41 40 36 35 37 37 36 38 39
27 28 28 29 29 29 30 31 31 31 30 29 28 27 27 26 25 24 24 24 23 21 21 21 22 23 23 24 25 26 27 29 29 30 31 32 32 33 34 35 36 36 35 35 34 34 33 32 32 32 31 31 31 31 32 32 33 35 36 36 37 38 40 41 42 42 42 43 44 43 43 44 43 41 42 42 40 38 35 34 36 36 36 38 40
25 26 27 27 28 28 29 30 30 31 31 31 29 28 27 26 26 24 24 25 24 23 23 22 22 22 23 23 24 25 26 27 28 29 30 31 32 33 34 35 36 36 35 35 34 33 32 32 32 32 31 31 30 30 31 32 33 34 34 34 36 38 40 41 41 41 41 42 43 42 42 43 41 39 40 40 38 37 35 34 35 35 35 37 39
25 26 26 26 26 27 28 29 29 29 30 30 30 29 28 26 25 25 25 26 26 25 24 24 24 23 24 24 24 25 26 26 27 28 29 30 31 32 33 35 36 36 35 34 33 32 32 32 31 31 31 30 29 30 31 32 33 33 33 33 34 34 35 38 39 40 41 41 42 42 42 42 41 40 39 38 37 36 35 33 33 34 35 36 38
24 25 25 25 26 26 26 27 27 27 27 28 29 28 28 26 25 25 25 26 27 27 26 26 26 26 26 26 26 26 26 27 27 27 28 29 30 31 32 34 35 35 35 34 33 32 32 32 31 32 31 30 30 30 30 32 33 32 32 32 32 31 32 34 36 38 40 42 44 46 45 43 42 41 38 37 37 37 35 33 33 33 35 36 37
24 24 24 25 25 25 25 25 25 25 25 26 27 26 26 25 24 25 25 26 27 27 27 27 27 27 28 28 28 28 28 28 28 28 28 29 29 30 31 32 33 34 34 33 32 32 31 31 31 32 31 30 30 30 31 32 31 30 30 32 32 32 32 33 33 33 35 37 42 44 43 42 43 42 39 37 36 35 34 33 32 32 34 36 38
24 24 23 23 23 23 23 23 23 23 23 24 24 24 23 23 23 24 25 26 27 28 29 29 29 29 29 28 28 28 28 28 28 28 28 29 29 29 30 31 32 32 31 30 30 31 31 31 31 31 31 30 31 31 31 31 29 29 32 35 34 32 31 31 30 30 30 32 35 36 34 35 36 37 36 34 33 34 33 32 31 30 32 35 37
24 23 22 21 21 21 21 21 20 20 21 21 21 20 20 21 21 22 23 24 26 27 28 29 29 29 28 28 27 27 27 27 27 28 28 29 29 28 28 29 29 29 28 28 28 29 30 31 31 30 29 29 29 29 30 31 31 33 35 34 32 31 31 29 28 28 29 29 30 30 29 29 30 31 31 30 30 30 31 32 34 34 34 35 37
23 22 20 19 18 18 18 18 18 18 18 18 19 19 19 19 20 21 21 22 23 24 25 26 26 26 26 26 25 25 25 26 26 27 28 28 28 28 27 27 27 27 27 27 28 28 29 30 30 30 30 31 32 32 33 33 34 34 33 30 29 29 30 29 29 29 29 29 29 31 33 33 33 33 32 31 31 32 33 37 39 38 37 38 39
21 20 19 18 17 16 16 15 15 15 16 16 17 17 18 19 19 20 21 21 21 21 22 23 24 24 24 24 24 25 25 26 26 26 27 27 27 26 26 25 25 26 25 26 27 28 29 30 30 31 31 32 32 32 31 31 30 30 30 31 31 30 30 29 28 27 27 29 32 34 35 34 33 33 33 32 32 33 35 38 39 37 38 40 41
18 17 16 16 15 13 13 13 13 13 14 15 15 15 16 17 17 18 19 20 20 20 20 21 21 22 23 23 23 23 24 25 25 24 24 24 23 23 23 23 23 24 24 24 25 25 26 27 27 28 28 28 28 27 27 26 26 27 28 29 30 29 29 28 29 30 32 34 35 35 35 35 36 37 37 37 37 37 38 39 39 38 39 41 41
13 13 12 12 11 11 11 12 14 14 15 15 15 15 15 16 17 18 18 19 19 20 20 20 20 20 21 21 21 21 22 22 22 22 21 21 20 20 20 20 20 21 22 23 24 26 26 27 28 28 28 29 29 29 29 29 29 29 30 31 32 33 34 34 34 35 36 34 33 32 32 33 35 36 38 39 40 40 40 40 40 39 39 39 39
9 9 9 9 10 11 13 14 15 16 16 16 16 16 16 16 17 17 18 18 18 18 18 18 18 18 19 19 19 19 19 18 18 18 18 17 17 17 17 17 17 17 18 19 21 23 25 27 29 29 30 30 30 30 31 32 32 33 33 33 34 34 33 31 29 28 27 25 24 24 24 24 25 25 26 27 28 29 30 32 34 36 37 37 37
8 8 8 10 11 12 13 14 14 15 15 16 16 16 16 15 15 15 15 15 16 16 16 16 16 15 16 15 15 15 15 14 14 13 13 12 12 12 13 13 14 15 15 16 16 18 19 21 23 24 24 24 25 25 25 26 26 26 26 25 25 23 22 20 18 18 18 17 17 17 17 18 17 17 17 17 17 18 19 20 22 25 28 30 32
8 9 10 10 11 11 12 12 12 12 12 12 12 13 13 12 12 12 11 11 12 11 12 12 12 12 12 11 11 10 10 9 8 7 6 5 5 4 5 6 7 8 9 10 11 11 12 13 13 13 13 14 14 14 15 15 15 15 14 13 12 11 10 9 8 8 8 8 8 8 9 10 10 10 10 11 11 12 13 14 15 17 19 21 24
9 9 9 10 10 10 10 9 9 9 9 8 8 8 7 7 7 7 7 7 7 7 7 8 8 8 8 7 7 5 4 3 3 2 1 2 2 3 3 2 1 1 1 1 2 3 4 4 4 4 4 3 3 4 4 4 4 4 3 3 2 2 2 2 3 3 4 4 5 6 6 8 8 9 9 10 10 10 10 10 11 12 13 15 17
7 7 7 7 7 7 6 6 6 5 5 4 4 4 3 3 3 2 2 2 2 2 3 4 3 3 3 3 3 2 2 1 1 1 1 1 1 1 1 1 1 1 1 1 1 1 2 2 3 3 3 2 1 2 2 3 3 4 4 4 5 5 6 7 8 8 9 9 10 10 11 11 12 12 13 13 13 13 13 13 12 12 12 14 14
6 6 6 6 5 5 4 4 4 3 2 2 1 0 1 2 2 2 2 2 2 2 2 2 1 1 1 1 2 3 4 4 4 5 5 5 4 4 4 4 5 5 5 5 4 3 3 2 2 2 2 2 2 3 4 5 6 7 7 7 8 9 9 10 11 11 11 12 12 13 14 15 15 16 16 17 17 17 17 17 17 17 17 18 19
7 7 7 7 7 7 6 6 6 5 5 4 3 1 1 0 1 1 1 2 2 2 3 3 4 4 4 5 6 7 7 7 8 7 7 7 6 6 6 6 6 7 7 7 7 6 6 5 5 4 3 3 3 4 4 5 6 7 8 9 9 10 10 11 12 12 13 13 13 14 16 17 18 18 19 19 19 19 20 21 21 21 21 22 23
8 9 9 9 9 9 8 8 8 7 6 5 4 3 3 4 4 4 5 5 5 6 6 7 8 8 9 9 9 9 9 9 9 8 8 8 7 6 6 5 6 6 8 8 8 8 7 7 6 6 5 5 5 5 6 7 7 8 8 9 10 10 11 12 13 14 14 15 15 16 16 17 18 19 19 20 20 21 23 24 24 24 24 25 26
10 11 11 11 11 11 10 10 9 8 8 7 6 6 7 8 8 9 9 10 10 11 11 11 11 12 12 12 12 11 11 11 11 10 9 9 9 9 8 7 7 8 10 11 12 12 12 12 11 10 9 8 8 7 7 8 8 9 9 10 11 12 13 14 16 17 17 18 19 19 20 20 21 21 22 23 24 25 26 25 25 26 26 26 27
12 13 13 13 13 12 11 11 10 10 10 10 10 11 11 12 12 12 13 13 14 14 14 13 13 13 13 13 13 12 12 12 12 11 11 12 13 14 13 13 12 13 14 15 16 16 16 16 16 15 14 13 13 12 11 11 11 12 13 14 15 17 18 18 19 19 19 20 21 21 22 22 23 24 25 25 25 26 25 24 24 24 25 25 26
13 14 14 14 13 12 12 13 13 13 13 13 14 14 14 14 15 14 15 15 14 14 13 12 12 12 12 12 13 13 13 14 14 15 15 16 17 18 18 18 18 17 17 18 18 18 19 20 20 19 18 17 17 17 17 17 17 17 18 18 19 19 20 20 20 20 20 20 20 21 21 21 22 22 23 23 23 23 23 23 23 23 23 24 25
15 15 15 14 14 14 15 16 16 16 15 15 15 15 15 15 16 15 15 13 12 12 11 11 11 12 13 14 15 16 17 17 19 20 21 21 21 22 22 21 20 19 19 19 18 19 19 20 20 20 19 19 19 18 18 18 18 18 18 18 18 18 19 19 19 19 19 19 20 20 19 19 19 20 20 20 21 21 21 21 21 21 21 22 22
15 15 16 16 16 17 17 17 17 16 14 14 13 13 13 13 12 12 11 10 9 9 9 10 11 12 14 16 18 20 21 22 23 24 25 25 24 24 23 22 21 20 19 18 18 19 19 18 18 19 18 17 17 17 17 17 17 17 17 16 16 16 17 17 17 17 17 17 17 16 16 17 17 17 17 17 17 17 17 17 18 18 18 19 20
15 16 16 16 16 16 16 16 15 14 13 13 12 11 10 10 9 9 8 9 10 11 12 13 14 15 16 18 20 22 24 25 26 27 29 29 28 26 24 23 22 21 20 18 18 18 18 17 17 17 16 15 16 16 16 16 16 15 15 15 15 15 15 16 15 15 14 13 13 13 14 14 14 14 15 15 15 15 15 14 15 15 15 17 18
15 15 16 16 16 15 15 15 14 13 13 12 11 11 10 10 10 10 11 12 14 16 18 19 20 21 22 23 23 24 25 26 27 28 28 28 27 26 24 23 22 21 19 17 16 16 16 16 16 15 14 14 14 15 14 14 14 14 14 14 14 14 14 13 12 10 9 9 10 11 12 13 13 13 14 15 15 14 13 13 13 13 14 15 16
16 16 16 16 16 15 14 14 14 14 13 13 13 13 12 12 13 14 14 16 18 19 20 22 24 24 24 24 23 24 24 25 25 26 25 25 24 23 22 21 21 20 18 17 16 15 15 15 14 14 13 13 13 12 12 12 12 12 13 13 13 13 12 11 9 8 7 8 9 10 10 10 10 11 13 14 13 13 13 14 14 15 16 18 19
17 17 16 16 16 15 14 14 14 15 15 15 16 16 16 16 16 17 18 19 19 19 20 21 22 23 22 21 21 22 22 23 23 23 23 21 20 20 19 19 18 17 15 14 14 13 12 11 10 9 9 9 9 9 9 9 10 10 10 10 11 11 10 10 10 10 10 11 12 13 12 12 11 11 12 12 13 14 14 14 16 17 18 19 20
17 17 16 16 16 15 15 16 16 16 17 18 18 18 18 19 19 19 19 19 18 19 19 20 20 20 19 19 19 19 19 19 20 20 19 17 16 15 15 13 12 11 9 8 8 7 6 6 5 5 5 5 5 5 6 6 7 7 8 8 8 8 9 10 10 11 11 12 13 14 14 14 14 14 14 15 16 17 17 17 17 18 17 17 17
17 16 16 15 15 16 16 17 17 17 18 18 19 19 19 19 20 19 18 18 18 18 18 18 18 17 17 17 16 16 15 16 16 15 13 11 10 9 8 7 6 5 4 3 2 1 1 1 1 2 3 3 4 5 6 6 7 8 8 9 9 10 11 12 12 13 14 14 15 15 16 16 16 16 17 17 18 18 19 20 20 20 20 20 20
16 16 16 16 16 17 17 18 17 18 18 19 19 19 19 19 18 18 17 17 17 17 16 16 16 15 13 13 13 12 11 11 11 9 7 5 5 4 3 2 2 1 2 2 2 3 3 3 4 4 5 6 7 8 8 9 9 10 11 11 12 13 13 14 14 14 14 15 15 15 16 16 16 17 17 17 17 18 19 20 20 21 21 21 21
17 16 16 16 17 17 17 17 17 17 17 18 18 18 18 18 17 16 16 17 17 17 16 15 13 11 10 10 9 8 7 6 6 5 4 4 4 4 4 4 4 4 5 5 6 6 6 6 6 7 7 8 8 8 9 10 10 11 11 12 12 13 13 14 14 14 14 14 15 15 16 16 16 16 17 16 17 17 17 18 19 19 20 20 20
17 16 16 17 17 17 17 17 17 16 16 16 16 16 16 15 15 15 16 16 16 16 14 12 9 8 8 8 8 7 6 6 5 5 6 6 7 7 7 6 6 7 7 7 7 7 7 7 7 8 8 8 8 9 9 9 10 10 11 11 12 13 13 13 13 14 14 15 16 17 17 18 18 18 19 19 19 19 19 19 19 19 20 20 19
16 16 17 17 17 17 17 16 16 15 15 15 14 14 14 13 14 14 14 14 13 12 10 8 7 7 7 7 7 7 7 7 7 7 7 8 8 8 8 8 8 8 8 8 7 7 7 7 7 7 8 8 8 8 9 9 9 10 10 11 12 13 13 13 14 14 15 17 18 18 19 19 20 20 21 22 23 23 23 23 23 22 22 22 22
16 16 16 16 17 16 16 16 15 15 14 13 13 12 12 12 12 11 11 11 10 9 7 7 7 8 9 9 9 9 9 8 8 8 7 8 8 8 8 8 7 7 7 6 6 6 6 7 7 7 7 7 8 8 8 9 9 10 10 11 12 13 13 14 15 16 18 18 19 19 20 20 21 22 23 23 24 25 25 25 25 25 24 24 24
16 16 16 16 16 16 15 15 14 13 13 12 12 11 11 10 10 10 9 9 8 7 7 8 9 10 10 11 11 11 10 9 8 7 7 6 6 6 5 5 5 5 4 5 5 5 6 6 7 7 8 8 9 9 10 10 11 12 12 13 14 15 15 17 18 19 19 20 21 22 22 23 23 23 24 25 25 26 26 26 26 26 26 26 26
15 15 15 15 15 14 14 13 13 12 12 11 11 10 10 10 10 10 9 9 9 9 10 10 10 10 10 10 10 10 9 8 7 6 5 4 3 2 2 2 3 3 4 4 5 5 6 6 7 7 8 8 9 10 10 11 12 13 13 14 15 15 16 17 18 19 20 20 21 22 23 23 24 24 24 25 25 26 26 27 27 27 27 27 27
14 14 14 13 13 13 12 12 11 11 10 10 10 10 10 10 10 10 10 11 11 11 12 11 11 10 9 9 8 8 7 6 5 3 3 1 0 0 1 2 3 3 4 5 5 6 6 7 7 8 8 9 9 10 10 11 12 12 13 14 14 15 16 16 17 18 19 19 21 21 22 23 23 23 23 24 24 25 26 26 27 27 28 28 28
13 12 12 11 11 10 10 9 9 9 9 10 10 10 11 11 12 12 12 12 12 12 12 11 10 9 8 7 6 6 5 5 4 3 2 2 2 2 3 4 4 5 5 6 6 7 7 8 8 9 9 9 10 10 10 11 11 11 12 13 13 14 15 16 16 17 18 18 19 20 21 22 23 23 23 23 23 24 25 26 27 28 28 29 29
10 10 9 9 9 8 8 8 8 9 9 10 10 11 11 12 12 12 12 12 11 10 10 9 9 8 7 7 6 6 5 5 5 4 4 3 4 4 4 5 6 6 7 7 8 8 9 9 9 10 10 10 11 11 11 11 12 12 13 13 14 14 15 15 16 17 18 18 19 20 21 22 22 22 23 23 23 24 25 25 25 26 27 27 28
8 8 8 8 8 8 9 9 10 10 11 11 11 11 11 11 11 11 10 10 9 9 8 8 8 7 7 7 6 6 6 6 6 5 5 6 6 6 6 7 8 8 9 9 10 10 10 11 11 11 12 12 13 12 13 13 13 14 14 14 15 15 15 15 16 17 18 19 19 20 21 21 22 22 23 23 23 23 24 24 24 25 25 26 27
9 9 8 8 8 9 9 9 9 10 10 10 10 10 10 10 9 9 9 8 8 8 7 7 7 7 7 7 7 7 7 7 8 8 8 8 8 8 8 9 9 10 10 11 11 12 12 13 13 13 14 14 14 14 14 14 14 15 15 15 15 16 16 16 17 18 18 19 20 20 21 21 22 22 23 23 23 23 24 24 23 24 24 25 26
Wind_Direction
251 254 259 265 272 277 282 286 290 294 296 295 293 292 292 293 290 285 281 278 274 271 267 264 263 264 265 266 265 265 265 265 265 265 266 267 268 268 267 266 267 268 267 267 268 267 268 269 267 266 266 267 266 265 265 265 265 265 263 267 271 267 263 263 264 269 274 276 277 279 280 281 282 283 282 280 281 280 278 278 278 277 276 275 274
255 261 266 271 276 279 282 286 290 291 293 294 294 292 291 291 291 288 283 280 277 274 271 267 265 263 263 263 263 263 263 263 263 263 264 265 265 266 265 264 266 268 267 268 268 267 268 270 269 267 267 268 267 266 266 267 268 266 266 270 271 266 264 265 266 268 272 274 276 279 281 282 282 282 281 281 284 284 277 274 273 273 274 274 274
268 275 279 280 280 281 282 284 286 287 289 291 291 291 290 288 287 287 285 281 276 273 272 269 268 267 265 263 262 262 261 261 262 262 263 264 265 266 266 264 266 267 268 269 269 269 269 270 270 269 269 269 269 267 267 269 269 267 268 271 270 268 267 266 266 267 270 273 274 275 279 282 282 282 282 284 287 284 276 274 272 271 272 275 276
281 284 285 283 281 280 282 282 282 282 284 286 288 290 289 287 283 282 283 282 278 274 272 269 267 266 266 264 263 263 262 262 263 263 263 265 265 266 266 265 265 267 268 269 270 270 270 270 270 270 270 270 270 269 269 269 270 269 270 272 271 270 270 268 268 269 270 273 273 273 276 279 282 284 284 285 285 282 279 280 281 280 281 282 281
283 283 282 281 279 279 281 281 281 280 280 281 285 287 288 286 284 282 280 281 280 277 273 270 267 263 261 262 262 263 264 264 264 264 264 265 265 265 265 265 265 267 268 269 269 270 270 270 270 270 271 271 271 271 270 271 272 271 271 272 272 272 272 270 270 270 269 270 272 273 274 275 278 281 281 281 282 282 281 281 282 283 284 284 283
279 280 279 279 279 280 282 281 280 280 279 279 281 285 286 286 286 284 281 279 278 276 274 270 268 264 261 261 261 262 263 263 263 263 263 263 263 264 264 263 264 266 267 267 267 268 269 270 270 271 271 272 272 272 272 272 273 272 272 272 272 272 272 270 270 269 269 270 272 273 273 272 274 276 277 278 279 280 280 281 281 280 281 282 283
277 278 278 278 278 280 281 281 281 280 280 279 280 284 286 286 289 288 283 278 276 275 274 272 270 267 263 262 262 262 263 263 262 262 261 261 262 263 264 263 263 264 264 265 265 265 266 267 269 270 270 271 273 273 273 273 273 273 272 273 273 272 271 270 270 268 268 270 271 271 271 272 272 273 275 276 276 277 278 278 279 280 282 284 286
275 275 276 276 277 278 279 278 279 280 280 280 280 283 285 286 290 291 286 281 278 276 275 274 272 269 266 264 262 262 261 261 261 260 260 260 261 262 264 264 264 264 263 263 263 263 264 265 267 268 269 270 272 273 273 273 273 273 273 273 272 270 269 269 268 267 267 267 268 270 271 272 272 271 272 271 271 272 275 277 279 282 285 287 287
275 275 276 277 278 278 278 278 278 279 280 280 279 280 283 284 287 291 289 285 282 279 277 275 274 272 270 269 266 264 263 261 261 261 261 261 262 263 264 264 265 264 263 262 262 262 262 263 265 266 267 269 270 271 272 271 271 271 271 271 271 270 269 269 267 266 265 265 267 268 269 269 270 270 270 269 270 274 277 277 278 281 284 284 283
278 280 281 282 283 282 282 281 281 281 281 281 279 278 280 281 282 286 288 286 283 281 279 276 275 274 274 273 271 269 267 266 265 265 264 263 262 262 263 263 263 263 262 263 263 262 262 263 263 264 265 266 267 268 269 269 269 268 268 269 270 270 270 269 268 267 266 265 266 268 267 269 271 271 271 273 276 278 278 276 276 280 282 281 281
283 286 288 289 289 288 288 287 286 285 284 284 282 280 278 278 277 279 283 284 282 281 279 276 275 274 273 272 272 270 269 268 268 266 265 263 261 260 260 261 262 262 262 262 263 263 263 264 264 265 264 263 263 265 266 266 266 267 268 268 268 269 269 269 269 269 268 268 269 270 268 270 273 273 274 277 278 277 277 278 278 280 280 280 281
284 286 289 290 291 292 292 292 291 290 287 285 283 281 280 278 276 276 278 280 280 278 278 277 275 274 273 272 271 271 271 270 269 267 266 263 261 259 258 259 261 262 262 263 263 264 265 265 265 265 264 263 263 264 264 264 265 266 267 267 267 267 267 268 269 269 269 269 271 272 270 272 275 275 276 278 279 278 279 280 279 279 279 278 281
283 285 287 289 291 292 293 293 293 292 289 285 282 281 280 279 279 279 279 280 280 279 278 278 278 277 276 275 274 273 272 272 270 269 268 265 263 261 260 260 260 261 261 261 262 263 264 265 265 265 264 264 263 263 263 263 263 264 264 265 264 262 262 266 268 269 269 269 270 270 270 272 275 276 278 279 279 278 278 279 279 280 280 280 282
284 287 288 290 291 290 290 290 290 288 285 283 281 280 279 278 278 281 282 284 284 283 283 282 281 281 279 277 276 274 273 273 272 272 271 269 267 264 263 262 261 261 261 260 262 264 264 265 265 265 265 265 264 264 264 263 262 263 264 265 264 261 260 262 265 266 268 269 270 271 272 272 273 276 277 276 275 274 275 279 281 282 282 283 285
286 289 292 294 293 290 289 287 286 285 283 282 281 282 282 280 279 279 281 285 287 288 288 286 284 283 280 278 276 275 275 275 275 275 274 273 271 268 266 265 263 263 263 262 262 263 264 264 265 265 265 264 263 261 260 260 261 262 262 263 264 264 263 262 262 261 260 262 266 270 272 272 271 272 272 271 270 271 273 276 277 278 279 280 280
287 292 295 296 294 291 289 289 288 288 288 287 287 287 287 287 285 282 281 283 285 287 288 287 286 284 282 280 278 277 277 278 279 279 279 278 277 274 271 269 266 265 264 263 262 261 262 262 262 263 262 261 260 260 261 264 265 263 263 262 261 260 262 265 265 263 261 260 262 265 270 272 272 272 271 270 268 269 271 273 274 275 276 276 275
288 293 296 295 293 291 291 293 296 296 296 297 297 296 295 293 291 288 286 285 285 286 287 287 287 286 285 284 282 281 281 282 283 284 283 283 281 279 275 271 268 265 263 261 259 258 259 259 259 261 261 262 263 264 265 265 264 263 264 265 263 262 265 268 267 264 263 262 263 267 271 275 275 274 274 272 271 271 271 271 273 274 273 273 275
290 293 295 294 292 292 294 298 303 305 307 307 307 305 302 299 295 291 289 288 287 287 287 287 288 288 288 287 287 287 287 287 287 286 285 284 282 279 276 272 268 266 264 262 260 259 258 259 260 260 261 261 261 261 260 261 261 261 263 265 265 265 264 263 260 257 258 262 266 270 272 274 273 272 271 269 269 269 268 269 270 271 270 271 274
288 291 294 294 293 296 300 307 312 314 314 314 313 311 307 304 302 299 295 293 290 288 287 287 286 287 288 288 289 289 290 289 288 287 285 284 282 279 276 273 269 267 263 261 260 260 260 260 259 260 261 263 264 264 263 262 261 261 261 261 261 260 257 255 255 256 259 263 265 267 267 267 267 267 266 266 266 266 265 266 268 269 269 270 272
286 291 295 296 299 305 310 315 317 316 315 314 312 310 308 306 305 303 299 296 293 290 288 286 284 284 283 284 284 284 285 285 285 285 284 283 282 280 278 276 273 269 265 260 257 257 257 258 260 262 264 266 267 268 267 265 264 264 264 264 264 264 263 263 264 264 265 267 268 267 266 265 265 265 265 265 265 264 263 263 263 264 265 267 268
288 293 299 301 305 309 309 311 312 311 311 310 308 307 305 302 300 298 295 293 291 289 287 285 283 281 280 279 279 278 278 279 279 281 281 282 281 280 277 275 272 270 267 263 259 257 258 259 260 262 263 263 264 264 264 264 265 265 266 266 268 268 268 268 268 268 269 271 272 272 271 268 266 265 265 265 264 262 260 258 258 258 259 261 263
284 289 295 297 300 302 303 305 306 306 307 306 306 305 304 301 298 295 292 289 288 287 286 283 281 280 279 278 277 276 277 278 278 278 279 278 277 276 275 273 270 267 263 261 259 258 258 259 261 262 263 264 264 264 264 264 265 266 268 269 270 271 271 271 269 268 268 270 270 270 270 270 270 269 269 268 266 264 263 261 258 255 254 255 257
279 285 291 295 298 299 299 300 300 299 298 298 299 301 301 301 300 297 294 291 289 287 285 281 279 280 281 281 281 280 278 278 278 276 275 275 273 271 270 269 269 268 264 260 257 256 256 257 259 261 263 265 264 262 262 262 262 264 265 265 266 266 265 265 267 268 270 276 280 281 282 283 284 283 282 281 279 275 273 271 268 264 261 258 256
278 285 292 297 299 298 298 297 294 292 291 292 295 295 296 299 301 301 301 299 295 290 281 277 279 284 287 288 287 285 281 274 264 239 196 149 125 120 118 118 121 124 180 231 226 213 213 210 210 211 215 226 241 251 256 259 261 265 270 275 284 298 314 329 336 334 332 333 334 333 328 323 321 317 311 310 307 301 295 289 284 279 275 270 266
270 278 283 286 287 287 288 283 278 278 281 289 298 302 307 317 316 318 337 345 320 288 265 264 275 287 297 309 318 328 351 1 6 25 55 90 96 96 98 90 58 37 33 29 73 108 129 142 147 146 140 126 88 43 12 359 355 353 351 350 347 345 343 341 339 335 333 332 330 330 329 325 322 319 315 314 313 310 308 306 304 302 297 292 288
249 253 256 254 249 245 240 229 222 217 212 219 239 46 46 46 50 58 75 92 110 141 171 193 213 230 270 311 313 314 318 315 310 310 306 303 301 301 299 298 300 301 301 303 306 302 297 290 277 274 281 297 312 318 321 324 325 324 325 324 324 326 327 328 329 328 328 330 331 330 329 325 321 317 314 313 312 311 310 311 312 312 309 305 301
229 232 234 234 228 220 214 208 205 201 194 195 199 188 167 138 108 119 141 154 167 186 210 233 250 258 265 270 275 281 284 283 282 280 278 275 273 275 277 280 288 293 295 296 297 293 287 282 280 278 274 274 278 281 285 292 297 301 307 310 314 318 320 322 323 324 324 326 327 327 326 323 320 318 315 314 313 312 309 308 308 305 300 296 291
218 221 222 222 219 214 211 209 207 204 202 206 219 239 253 262 262 256 249 245 243 245 248 252 257 262 265 267 271 275 277 280 282 281 278 274 270 271 272 270 278 293 300 301 301 298 294 290 285 282 279 277 276 277 280 285 289 296 303 308 312 315 315 314 314 312 312 313 313 314 315 314 313 312 309 306 304 301 298 295 292 289 287 284 282
210 213 214 212 210 207 208 209 209 213 220 230 246 261 268 274 276 273 269 267 266 265 265 265 266 270 272 273 275 277 280 284 290 294 296 295 293 295 297 295 296 305 310 312 313 311 308 305 300 296 292 288 284 284 286 290 297 301 303 302 300 299 298 298 298 298 299 300 300 299 298 297 296 295 293 290 288 286 285 283 281 281 281 280 281
206 209 208 208 208 209 216 226 234 242 248 255 262 268 272 275 277 277 277 276 275 274 275 277 279 282 285 286 286 288 289 290 293 298 302 304 304 304 306 307 306 306 307 308 309 307 305 302 298 294 289 285 282 279 276 274 276 279 281 282 282 283 285 287 289 291 293 294 293 292 290 289 287 285 284 283 282 281 281 280 279 280 281 282 284
207 210 211 214 218 227 240 251 259 264 267 270 271 270 271 272 273 275 275 274 275 277 280 285 288 291 295 299 301 303 304 303 303 304 304 304 303 302 303 303 302 300 299 298 297 295 293 290 288 286 284 282 280 277 275 274 272 272 273 275 276 277 279 281 283 286 289 291 292 294 295 294 293 291 289 289 289 289 289 290 290 289 289 289 289
209 214 222 230 239 249 258 264 267 268 268 268 268 267 267 266 266 267 267 268 273 281 288 296 300 302 305 307 307 308 307 307 307 307 306 306 304 302 301 300 299 297 296 293 289 286 284 282 281 280 280 279 279 280 280 280 280 280 280 281 281 282 283 284 285 288 290 292 295 298 302 303 302 301 300 300 301 301 301 301 301 300 299 297 296
216 226 237 247 254 260 264 266 267 265 262 258 255 255 255 254 254 257 260 262 271 284 293 298 301 303 304 304 302 301 301 300 301 301 301 302 302 301 300 298 296 295 293 290 287 285 283 281 279 279 279 280 281 281 282 282 283 283 284 285 287 288 288 289 290 293 296 299 301 305 307 309 311 311 311 311 311 310 309 308 308 307 305 304 303
232 241 249 255 258 260 261 260 258 255 252 248 244 239 238 239 241 246 251 259 271 281 285 285 285 287 287 288 288 288 289 290 290 291 292 294 295 296 295 294 293 292 289 287 283 280 277 275 273 273 275 277 277 278 280 281 282 283 283 284 285 287 291 295 301 306 312 316 316 315 316 320 323 323 322 321 320 320 319 319 318 317 315 313 311
247 252 256 259 259 257 255 253 251 248 245 244 244 242 241 243 248 253 258 265 274 280 282 282 282 281 279 279 280 280 281 282 282 283 284 285 286 287 287 286 286 285 283 281 276 270 266 265 267 270 272 275 277 280 282 283 285 286 287 289 292 295 300 306 314 323 331 332 326 324 329 334 335 331 325 323 324 325 325 324 321 318 316 314 312
254 255 257 257 256 254 253 253 253 252 252 252 255 257 258 259 262 265 269 273 276 279 280 280 279 279 278 278 277 277 278 279 279 279 279 279 278 279 279 278 278 278 277 274 269 265 263 265 270 275 278 280 282 285 286 288 290 293 295 299 302 304 306 309 312 315 315 310 307 313 321 323 322 325 326 325 322 320 319 317 310 303 299 299 299
256 256 255 254 252 251 254 258 261 262 264 267 268 270 271 271 270 271 272 274 274 276 276 275 275 276 276 275 275 275 276 276 276 276 277 278 278 278 277 277 276 276 274 270 267 266 268 272 276 281 285 289 291 295 299 302 304 306 309 312 313 313 313 313 311 309 307 304 305 309 311 307 304 306 309 307 303 302 305 310 309 304 302 303 303
255 254 253 252 252 253 257 264 268 270 273 276 276 277 279 278 277 275 273 272 271 271 272 273 273 274 274 274 274 273 270 268 269 271 273 275 276 276 275 273 272 270 266 263 262 262 268 276 284 291 299 308 312 315 320 324 326 330 334 335 335 335 332 331 330 328 327 327 328 328 327 323 318 312 307 303 300 299 298 301 305 307 309 310 309
252 252 251 252 253 256 262 268 273 276 279 280 280 280 279 279 278 276 273 270 268 267 268 270 271 273 276 276 273 267 262 261 263 266 268 267 265 264 263 260 259 256 250 247 245 245 270 316 344 345 350 359 0 359 1 0 359 0 0 359 359 358 357 357 356 355 354 353 351 348 344 339 336 332 327 323 320 316 312 309 309 310 309 307 304
250 251 251 253 256 260 265 271 276 279 281 281 280 279 277 276 275 273 270 266 264 263 265 268 271 274 275 271 265 259 256 257 258 255 249 241 235 230 224 216 199 159 129 110 90 78 66 58 50 38 32 29 26 25 24 21 19 19 17 15 15 14 12 11 10 8 7 6 3 1 357 352 347 344 341 337 332 327 323 321 318 316 313 311 311
251 253 254 257 260 264 268 273 276 278 278 277 276 276 276 275 273 269 265 262 261 262 264 268 270 269 264 257 249 242 240 238 228 211 196 185 171 153 137 124 110 99 92 85 80 75 71 67 62 56 52 47 43 41 39 35 33 32 30 28 27 24 21 19 17 15 15 15 14 11 8 3 358 354 351 347 342 336 332 329 325 323 321 319 318
253 256 259 262 265 267 270 272 272 272 272 271 272 272 272 271 268 264 262 261 262 265 267 266 261 250 239 232 223 212 201 194 184 170 155 145 137 128 121 113 105 98 92 86 81 77 73 70 67 65 62 58 54 50 47 44 41 38 35 34 31 27 23 20 18 18 19 19 17 15 10 6 5 3 360 357 353 350 347 343 338 336 333 329 325
255 259 262 265 267 268 268 268 266 266 266 267 268 268 267 265 263 261 260 262 265 268 265 255 238 217 204 197 190 179 171 170 164 152 140 132 126 118 112 108 101 95 90 85 80 77 73 71 68 66 62 59 56 52 48 44 41 37 34 32 28 24 20 16 15 16 16 15 13 10 7 4 4 3 1 360 358 356 355 352 348 345 342 339 336
259 262 264 266 266 266 266 264 263 262 262 263 263 262 260 259 257 256 256 256 257 254 241 221 202 187 179 173 166 160 160 161 156 148 139 130 123 117 112 107 99 93 88 82 76 71 65 60 55 52 48 45 42 39 36 33 30 27 25 23 19 15 12 11 10 9 7 5 3 1 359 359 359 358 357 357 355 354 353 351 348 345 343 340 338
261 262 263 264 263 263 262 261 259 258 256 256 254 252 249 247 245 243 240 235 228 216 201 188 178 172 167 163 159 158 160 159 155 150 142 133 124 117 111 104 95 88 78 65 55 48 41 34 29 26 23 20 19 17 15 13 12 12 11 9 7 4 4 5 5 2 357 355 355 355 354 354 354 353 352 352 351 349 349 348 347 345 343 340 336
259 260 260 260 259 258 257 255 253 249 246 243 240 236 232 227 223 219 212 202 192 183 177 173 169 166 165 163 162 163 163 162 159 156 149 140 128 112 95 80 64 50 39 29 23 19 16 12 9 7 5 4 5 5 3 2 2 2 2 -0 358 356 358 1 360 355 352 351 351 350 350 350 350 349 349 348 347 346 345 346 346 344 343 341 338
254 254 254 254 254 253 252 248 243 236 231 225 220 215 209 203 198 191 185 179 176 172 170 169 168 169 171 172 173 174 173 172 172 170 165 167 176 13 3 357 359 0 358 357 356 353 350 350 351 351 352 353 354 355 356 356 356 356 355 353 350 349 353 356 353 348 347 347 347 346 345 345 345 346 345 344 344 343 343 343 343 343 342 342 340
246 247 247 246 244 242 239 234 225 217 209 202 196 190 185 181 177 173 171 171 171 171 172 173 175 179 184 189 192 194 194 195 199 205 218 244 272 293 306 314 321 323 323 325 329 328 328 330 332 334 337 340 343 345 346 347 347 347 347 345 343 344 348 349 346 342 342 343 343 342 342 342 342 342 342 341 341 341 341 341 341 341 340 340 339
236 235 233 230 226 219 213 205 197 190 184 179 175 171 169 168 168 168 170 172 174 176 181 186 189 194 201 207 213 218 221 221 225 233 244 258 271 281 289 295 299 302 305 308 310 311 314 316 318 320 322 324 327 331 334 335 335 337 337 336 337 340 343 341 338 336 337 338 339 340 339 339 340 339 338 339 339 338 338 339 338 337 337 336 335
220 216 209 204 199 192 187 181 176 173 171 169 167 168 169 170 172 174 178 181 185 190 195 200 204 210 216 223 230 238 244 246 250 254 258 264 271 277 283 288 291 294 297 299 301 304 307 308 310 312 313 314 316 320 323 325 326 328 328 329 331 334 335 333 332 333 334 334 335 336 336 336 336 336 336 336 336 335 335 335 335 334 334 333 332
204 200 194 189 185 181 179 177 174 173 173 173 174 177 179 181 184 188 192 197 202 206 210 216 221 226 233 239 246 254 259 262 264 265 265 267 271 274 279 285 289 292 295 298 300 302 304 306 307 309 309 310 312 314 315 318 320 320 321 322 324 326 326 326 326 329 330 330 330 331 332 332 333 333 333 333 332 332 333 334 334 333 332 330 329